Regional Weather Roundup
Issued by NWS

Home | Current Version | Previous Version | Graphics & Text | Print | Product List | Glossary On
Versions: 1 2 3 4 5 6 7 8 9 10 11 12 13 14 15 16 17 18 19 20 21 22 23 24 25 26 27 28 29 30 31 32 33 34 35 36 37 38 39 40 41 42 43 44 45 46 47 48 49 50
000
ASUS43 KTOP 312308
RWRKS

WEATHER ROUNDUP FOR KANSAS
NATIONAL WEATHER SERVICE GOODLAND KS
600 PM CDT WED AUG 31 2016

NOTE:  "FAIR" INDICATES FEW OR NO CLOUDS BELOW 12,000 FEET WITH NO
SIGNIFICANT WEATHER AND/OR OBSTRUCTIONS TO VISIBILITY.

KSZ001>006-013>018-027>032-041>047-010000-
NORTHWEST KANSAS

CITY           SKY/WX    TMP DP  RH WIND       PRES   REMARKS
GOODLAND       CLOUDY    69  64  84 SE12      30.21S
HAYS           MOSUNNY   75  63  64 E14       30.14S
HILL CITY      CLOUDY    74  67  78 NE13G21   30.16S
RUSSELL        MOSUNNY   75  68  78 E14       30.12F
$$

KSZ061>065-074>080-084>089-010000-
SOUTHWEST KANSAS

CITY           SKY/WX    TMP DP  RH WIND       PRES   REMARKS
DODGE CITY     PTSUNNY   79  67  66 E12       30.13F
ELKHART          N/A     80  61  52 SE7         N/A
GARDEN CITY    MOSUNNY   78  64  61 SE8       30.14S
GREAT BEND     MOSUNNY   75  64  69 NE14      30.11F
LIBERAL        PTSUNNY   73  61  64 E12       30.15S
PRATT          DRIZZLE   75  64  69 NE9       30.11S
$$

KSZ066>073-081>083-090>101-010000-
SOUTHEAST KANSAS

CITY           SKY/WX    TMP DP  RH WIND       PRES   REMARKS
CHANUTE        MOSUNNY   78  70  76 NE7       30.07R
COFFEYVILLE    CLOUDY    79  73  82 NE12      30.03F
HUTCHINSON     MOSUNNY   81  69  67 E9        30.08F
MEDICINE LODGE   N/A     80  67  64 NE9       30.07S
NEWTON         MOSUNNY   76  69  79 E7        30.09F
PARSONS        CLOUDY    79  71  76 VRB6      30.05F
WICHITA INTL   CLOUDY    83  68  60 NE8       30.07S
WICHITA JABRA  PTSUNNY   77  71  82 NE10      30.07S
WICHITA MCCONL CLOUDY    80  69  68 NE8       30.06F
WINFIELD       MOSUNNY   81  71  71 NE10      30.06F
$$

KSZ007>012-019>026-033>040-048>060-102>105-010000-
NORTHEAST KANSAS

CITY           SKY/WX    TMP DP  RH WIND       PRES   REMARKS
CONCORDIA      MOSUNNY   79  66  64 NE10      30.13F
EMPORIA        PTSUNNY   76  70  82 NE8       30.08S
LAWRENCE       MOSUNNY   78  68  71 NE9       30.07F
MANHATTAN      CLOUDY    79  71  76 N7        30.09S
MARYSVILLE     CLOUDY    79  57  47 NE10      30.12F
OLATHE IND     PTSUNNY   78  69  73 N9        30.09S
OLATHE EXE     CLOUDY    78  68  71 NE7       30.09S
SALINA         LGT RAIN  74  69  85 N8        30.11F
TOPEKA BILLARD MOSUNNY   80  68  66 NE8       30.08S
TOPEKA FORBES  MOSUNNY   82  69  64 N8        30.09S
$$




USA.gov is the U.S. government's official web portal to all federal, state and local government web resources and services.